UGSB

Details ICAO UGSB (BUS)
Name BATUMI
Region Georgia
Timezone Asia/Tbilisi (UTC+4.0)
Plans Departing 99
Arriving 97
Stats Elevation 105 ft / 32 m (AMSL)
Location 41.609660° 41.600318°
Runways 1
Magnetic Variation 6.584° E
Sunrise 2018-05-24 01:48:12 UTC / 2018-05-24 05:48:12 Local
Sunset 2018-05-24 16:35:31 UTC / 2018-05-24 20:35:31 Local
Advertisement - Login to hide

Runways

ID Width Length Bearing (true) Bearing (mag) Surface Threshold Offset Overrun Length
13 150 ft / 46 m 7,321 ft / 2,232 m 130.81° 124.23° Asphalt 0 ft / 0 m 690 ft / 210 m
31 150 ft / 46 m 7,321 ft / 2,232 m 310.82° 304.24° Asphalt 0 ft / 0 m 0 ft / 0 m

Approach Navaids

Runway Type Ident Frequency Range Bearing (true) Bearing (mag) Slope Elevation
13 Localiser ILU 110.30 MHz 18 nm / 33 km 130.94° 124.36° - 121 ft / 37 m (AMSL)
13 Glidescope ILU 110.30 MHz 10 nm / 19 km 130.82° 124.23° 2.50° 127 ft / 39 m (AMSL)

Map

Weather


0- 5 10 15 20 25 30 35+ Temperature / ° C

Clouds and Precipitation
Forecast for 2018-05-24 06:00 UTC. Updated an hour ago

Ground ~20,000 ft ~40,000 ft Winds

METAR

UGSB 240630Z 31004KT 270V340 9999 FEW026 BKN038 23/19 Q1017 NOSIG

TAF

Not found

Frequencies

Tower 120.00 MHz TWR
Warning: Do not use this data for real-world aviation or navigation. No guarantee of current accuracy is given.